Date String (YYYY-MM-DD hh:mm:ss) UTC,Instrument flags,Ambient pressure (hPa),Sample flow (lpm),Bypass flow (lpm),Sample temperature (°C),Ambient temperature (°C),ASC tube jacket temperature (°C),LED temperature (°C),Box temperature (°C),Sample RH (%),Span deviation,Mass concentration (μg/m³),Mass concentration (μg/m³),Mass concentration (μg/m³)
DateTimeUTC,F1_M11,P_M11,Q1_M11,Q2_M11,T1_M11,T2_M11,T3_M11,T4_M11,T5_M11,U1_M11,ZSPAN_M11,X0_M11,X2_M11,X1_M11
2022-12-09 09:00:00,,0826.7,4.99,0.00,22.1,20.9,00.0,30.9,23.9,05.9,0000.0,0001.93,0001.09,0000.85
2022-12-09 09:01:00,,0826.7,4.98,0.00,22.1,20.8,00.0,30.9,23.9,05.9,0000.0,0001.97,0001.10,0000.84
2022-12-09 09:02:00,,0826.7,5.00,0.00,22.1,20.8,00.0,30.9,23.9,06.0,0000.0,0002.04,0001.12,0000.84
2022-12-09 09:03:00,,0826.7,5.01,0.00,22.1,20.7,00.0,30.9,23.9,05.9,0000.0,0001.96,0001.10,0000.83
2022-12-09 09:04:00,,0826.7,5.01,0.00,22.1,20.7,00.0,30.9,23.9,05.9,0000.0,0002.93,0001.09,0000.83
2022-12-09 09:05:00,,0826.7,4.99,0.00,22.0,20.6,00.0,30.9,23.8,06.0,0000.0,0003.07,0001.08,0000.82
2022-12-09 09:06:00,,0826.7,4.99,0.00,22.0,20.6,00.0,30.9,23.8,06.1,0000.0,0003.07,0001.08,0000.81
2022-12-09 09:07:00,,0826.6,4.99,0.00,22.0,20.5,00.0,30.9,23.8,06.1,0000.0,0003.34,0001.10,0000.81
2022-12-09 09:08:00,,0826.7,5.01,0.00,22.0,20.5,00.0,30.9,23.8,06.1,0000.0,0003.43,0001.11,0000.80
2022-12-09 09:09:00,,0826.7,5.02,0.00,22.0,20.6,00.0,30.9,23.8,06.2,0000.0,0004.17,0001.16,0000.80
2022-12-09 09:10:00,,0826.7,5.00,0.00,22.1,21.2,00.0,30.8,24.0,06.2,0000.0,0005.16,0001.22,0000.81
2022-12-09 09:11:00,,0826.6,4.98,0.00,22.1,22.0,00.0,30.8,24.1,06.2,0000.0,0005.25,0001.28,0000.82
2022-12-09 09:12:00,,0826.6,5.02,0.00,22.2,22.1,00.0,30.9,24.2,06.2,0000.0,0005.45,0001.35,0000.84
2022-12-09 09:13:00,,0826.5,4.99,0.00,22.2,21.8,00.0,30.9,24.1,06.2,0000.0,0005.79,0001.43,0000.85
2022-12-09 09:14:00,,0826.5,5.01,0.00,22.2,21.5,00.0,30.9,24.1,06.3,0000.0,0006.12,0001.54,0000.86
2022-12-09 09:15:00,,0826.5,5.03,0.00,22.2,21.3,00.0,31.0,24.1,06.3,0000.0,0005.85,0001.65,0000.89
2022-12-09 09:16:00,,0826.5,4.99,0.00,22.2,21.2,00.0,31.0,24.1,06.3,0000.0,0005.63,0001.68,0000.91
2022-12-09 09:17:00,,0826.5,4.99,0.00,22.2,21.1,00.0,31.0,24.0,06.3,0000.0,0005.57,0001.66,0000.93
2022-12-09 09:18:00,,0826.5,4.99,0.00,22.2,21.1,00.0,31.0,24.0,06.3,0000.0,0006.38,0001.67,0000.94
2022-12-09 09:19:00,,0826.6,5.01,0.00,22.2,21.1,00.0,31.0,24.0,06.3,0000.0,0006.51,0001.73,0000.96
2022-12-09 09:20:00,,0826.6,5.02,0.00,22.2,21.0,00.0,31.0,24.0,06.3,0000.0,0006.01,0001.74,0000.97
2022-12-09 09:21:00,,0826.6,5.01,0.00,22.2,20.9,00.0,31.0,24.0,06.3,0000.0,0005.01,0001.74,0000.99
2022-12-09 09:22:00,,0826.6,4.99,0.00,22.2,20.8,00.0,31.0,24.0,06.3,0000.0,0005.04,0001.73,0001.00
2022-12-09 09:23:00,,0826.6,4.98,0.00,22.2,20.8,00.0,31.0,23.9,06.3,0000.0,0004.94,0001.74,0001.02
2022-12-09 09:24:00,,0826.6,5.02,0.00,22.1,20.8,00.0,31.0,23.9,06.3,0000.0,0005.00,0001.64,0001.02
2022-12-09 09:25:00,,0826.7,5.01,0.00,22.1,20.7,00.0,31.0,23.9,06.2,0000.0,0005.18,0001.53,0001.01
2022-12-09 09:26:00,,0826.6,4.99,0.00,22.1,20.7,00.0,30.9,23.9,06.2,0000.0,0004.65,0001.43,0001.00
2022-12-09 09:27:00,,0826.7,4.99,0.00,22.1,20.6,00.0,30.9,23.9,06.2,0000.0,0004.42,0001.40,0000.99
2022-12-09 09:28:00,,0826.7,5.01,0.00,22.1,20.6,00.0,30.9,23.9,06.2,0000.0,0004.42,0001.40,0000.98
2022-12-09 09:29:00,,0826.7,5.02,0.00,22.1,20.6,00.0,30.9,23.9,06.1,0000.0,0003.49,0001.39,0000.98
2022-12-09 09:30:00,,0826.7,4.99,0.00,22.1,20.6,00.0,30.9,23.9,06.2,0000.0,0003.28,0001.32,0000.96
2022-12-09 09:31:00,,0826.7,4.98,0.00,22.1,20.6,00.0,30.9,23.9,06.2,0000.0,0003.18,0001.28,0000.95
2022-12-09 09:32:00,,0826.7,5.01,0.00,22.0,20.6,00.0,30.9,23.9,06.2,0000.0,0003.07,0001.23,0000.94
2022-12-09 09:33:00,,0826.7,5.01,0.00,22.1,21.3,00.0,30.9,24.0,06.0,0000.0,0002.98,0001.22,0000.92
2022-12-09 09:34:00,,0826.7,5.01,0.00,22.2,22.0,00.0,30.9,24.1,05.7,0000.0,0002.82,0001.14,0000.89
2022-12-09 09:35:00,,0826.7,5.00,0.00,22.2,22.0,00.0,30.9,24.2,05.9,0000.0,0002.37,0001.10,0000.88
2022-12-09 09:36:00,,0826.6,4.99,0.00,22.2,21.7,00.0,31.0,24.1,05.9,0000.0,0001.80,0001.11,0000.89
2022-12-09 09:37:00,,0826.7,4.99,0.00,22.2,21.4,00.0,31.0,24.0,05.7,0000.0,0001.78,0001.12,0000.88
2022-12-09 09:38:00,,0826.6,5.00,0.00,22.2,21.2,00.0,31.0,24.0,05.7,0000.0,0001.91,0001.15,0000.87
2022-12-09 09:39:00,,0826.5,5.02,0.00,22.2,21.1,00.0,31.0,24.0,05.7,0000.0,0001.89,0001.16,0000.88
2022-12-09 09:40:00,,0826.5,5.00,0.00,22.2,21.0,00.0,31.0,24.0,05.7,0000.0,0001.80,0001.16,0000.88
2022-12-09 09:41:00,,0826.5,4.99,0.00,22.2,20.9,00.0,31.0,24.0,05.8,0000.0,0001.79,0001.13,0000.87
2022-12-09 09:42:00,,0826.5,4.99,0.00,22.2,20.8,00.0,31.0,23.9,05.8,0000.0,0001.85,0001.12,0000.86
2022-12-09 09:43:00,,0826.5,5.02,0.00,22.1,20.7,00.0,31.0,23.9,05.7,0000.0,0001.94,0001.13,0000.86
2022-12-09 09:44:00,,0826.5,5.00,0.00,22.1,20.6,00.0,31.0,23.9,05.8,0000.0,0001.91,0001.12,0000.85
2022-12-09 09:45:00,,0826.5,4.99,0.00,22.1,20.6,00.0,31.0,23.9,05.7,0000.0,0001.91,0001.14,0000.85
2022-12-09 09:46:00,,0826.3,4.98,0.00,22.1,20.6,00.0,30.9,23.9,05.7,0000.0,0001.94,0001.14,0000.85
2022-12-09 09:47:00,,0826.3,5.01,0.00,22.1,20.6,00.0,30.9,23.9,05.7,0000.0,0002.15,0001.21,0000.84
2022-12-09 09:48:00,,0826.2,5.01,0.00,22.1,20.6,00.0,30.9,23.9,05.8,0000.0,0002.14,0001.22,0000.84
2022-12-09 09:49:00,,0826.2,4.99,0.00,22.1,20.5,00.0,30.9,23.8,05.9,0000.0,0002.10,0001.21,0000.85
2022-12-09 09:50:00,,0826.2,4.99,0.00,22.0,20.6,00.0,30.9,23.8,05.8,0000.0,0002.10,0001.20,0000.84
2022-12-09 09:51:00,,0826.3,5.01,0.00,22.1,20.8,00.0,30.9,23.9,05.8,0000.0,0002.49,0001.18,0000.83
2022-12-09 09:52:00,,0826.4,5.01,0.00,22.1,21.7,00.0,30.9,24.1,05.9,0000.0,0002.88,0001.21,0000.84
2022-12-09 09:53:00,,0826.4,4.99,0.00,22.2,22.3,00.0,30.9,24.2,05.9,0000.0,0002.91,0001.24,0000.83
2022-12-09 09:54:00,,0826.3,5.01,0.00,22.3,22.0,00.0,30.9,24.2,06.0,0000.0,0002.97,0001.27,0000.84
2022-12-09 09:55:00,,0826.2,5.00,0.00,22.3,21.7,00.0,31.0,24.1,06.2,0000.0,0003.07,0001.30,0000.86
2022-12-09 09:56:00,,0826.2,5.00,0.00,22.3,21.5,00.0,31.0,24.1,06.1,0000.0,0003.18,0001.33,0000.87
2022-12-09 09:57:00,,0826.2,5.00,0.00,22.3,21.3,00.0,31.0,24.1,06.0,0000.0,0003.29,0001.38,0000.88
2022-12-09 09:58:00,,0826.2,5.00,0.00,22.3,21.2,00.0,31.0,24.1,06.1,0000.0,0003.27,0001.40,0000.89
2022-12-09 09:59:00,,0826.4,5.02,0.00,22.2,21.1,00.0,31.0,24.0,06.1,0000.0,0003.26,0001.41,0000.91
